#timestamp,LO_Frequency,Hit,StdDev 
1531954815.6,286047000.3,N
1531954835.4,286047002.3,N
1531954855.3,286047000.6,N
1531954875.1,286047000.6,N
1531954895.8,286047000.0,N
1531954915.7,286047001.2,N
1531954935.5,286046998.2,N
1531954955.3,286046999.0,N
1531954975.2,286046998.7,N
1531954995.0,286046999.3,N
1531954995.9,286046999.3,N
1531955015.8,286046998.3,N
1531955035.6,286047001.1,N
1531955055.4,286046998.2,N
1531955075.3,286047001.2,N
1531955095.1,286047001.2,N
1531955115.9,286046999.0,N
1531955135.7,286046999.4,N
1531955155.5,286046999.3,N
1531955175.4,286047000.9,N
1531955195.2,286046999.8,N
1531955215.0,286047002.8,N
1531955215.9,286047002.8,N
1531955235.8,286046999.7,N
1531955255.6,286046999.8,N
1531955275.5,286047002.8,N
1531955295.3,286047002.3,N
1531955315.1,286047000.1,N
1531955335.9,286047000.2,N
1531955355.7,286047002.3,N
1531955375.5,286047002.8,N
1531955395.4,286046999.9,N
1531955415.2,286047002.6,N
1531955435.1,286046999.9,N
1531955436.0,286046999.9,N
1531955455.8,286046999.8,N
1531955475.6,286046999.9,N
1531955495.5,286046999.7,N
1531955515.3,286047002.3,N
1531955535.1,286047004.2,N
1531955555.9,286047001.3,N
1531955575.7,286047003.2,N
1531955595.6,286047004.3,N
1531955615.4,286047001.4,N
1531955635.2,286047004.2,N
1531955655.1,286047001.5,N
1531955656.0,286047001.5,N
1531955675.8,286047003.8,N
1531955695.6,286047004.2,N
1531955715.5,286047004.2,N
1531955735.3,286047003.8,N
1531955755.2,286047005.9,Y
1531955775.9,286047001.5,P
1531955795.7,286047001.8,P
1531955815.6,286047001.7,P
1531955835.4,286047002.2,Y
1531955855.3,286047001.0,P
1531955875.1,286047000.1,N
1531955876.0,286047000.1,N
1531955895.8,286047002.4,Y
1531955915.7,286047000.3,P
1531955935.5,286047001.0,P
1531955955.3,286047000.9,P
1531955975.2,286047001.1,Y
1531955995.0,286046999.3,P
1531955995.9,286046999.3,N
1531956015.8,286046998.5,N
1531956035.6,286046999.2,N
1531956055.4,286046998.9,N
1531956075.3,286046998.8,N
1531956095.1,286046999.0,N
1531956115.8,286046998.3,N
1531956135.7,286046999.4,N
1531956155.5,286046999.0,N
1531956205.4,286046996.8,E
1531956215.3,286046998.3,N
1531956235.2,286047000.1,P
1531956255.9,286047002.6,N
1531956275.7,286046999.8,N
1531956295.6,286047001.9,N
1531956315.4,286047001.3,N
1531956335.2,286047004.3,N
1531956355.1,286047001.9,N
1531956356.0,286047001.9,N
1531956375.8,286047001.7,N
1531956395.7,286047001.5,N
1531956415.5,286047002.1,N
1531956435.3,286047001.8,N
1531956455.2,286047004.4,Y
1531956475.0,286047002.8,P
1531956475.9,286047002.8,P
1531956495.7,286047000.2,N
1531956515.6,286047002.3,N
1531956535.4,286047002.8,N
1531956555.3,286047002.4,N
1531956575.1,286046999.8,N
1531956576.0,286046999.8,N
1531956595.8,286047002.6,N
1531956615.7,286047002.3,N
1531956635.5,286047002.4,N
1531956655.4,286047001.5,N
1531956675.2,286047002.8,N
1531956695.0,286047002.1,N
1531956695.9,286047002.1,N
1531956715.8,286047002.0,N
1531956735.6,286047002.3,N
1531956755.4,286047003.8,Y
1531956775.3,286047002.4,P
1531956795.1,286047000.1,N
1531956815.9,286047002.6,N
1531956835.7,286047002.6,N
1531956855.5,286047002.8,N
1531956875.4,286047000.7,N
1531956895.2,286047000.7,N
1531956915.0,286047000.6,N
1531956915.9,286047000.6,N
1531956935.8,286047000.7,N
1531956955.6,286047002.1,N
1531956975.5,286047002.5,N
1531956995.3,286046999.8,N
1531957015.1,286047001.7,N
1531957035.9,286047003.5,Y
1531957055.7,286047002.6,P
1531957075.6,286047002.6,P
1531957095.4,286047001.9,P
1531957115.2,286047001.0,N
1531957135.1,286046999.8,N
1531957136.0,286046999.8,N
1531957155.8,286046999.7,N
1531957175.6,286047000.4,N
1531957195.5,286046999.5,N
1531957215.3,286046998.5,N
1531957235.2,286046999.1,N
1531957255.9,286046999.3,N
1531957275.7,286046999.6,N
1531957295.6,286046999.2,N
1531957315.4,286046999.3,N
1531957335.2,286046998.4,N
1531957355.1,286046999.2,N
1531957356.0,286046999.2,N
1531957375.8,286046999.6,N
1531957395.7,286046996.7,N
1531957415.5,286046999.3,N
1531957435.3,286046996.5,N
1531957455.2,286046996.8,N
1531957475.0,286046997.8,N
1531957475.9,286046997.8,N
1531957495.8,286046997.5,N
1531957515.6,286046997.6,N
1531957535.4,286046996.9,N
1531957555.3,286046996.6,N
1531957575.1,286046996.8,N
1531957595.8,286046997.8,N
1531957615.7,286046995.3,Y
1531957635.5,286046997.2,P
1531957655.4,286046997.7,N
1531957675.2,286046995.0,P
1531957695.0,286046995.2,Y
1531957695.9,286046995.2,P
1531957715.8,286047001.2,N
1531957735.6,286046998.8,N
1531957755.5,286046998.4,N
1531957775.3,286047000.8,N
1531957795.1,286047000.9,N
1531957815.9,286046999.4,N
1531957835.7,286046999.3,N
1531957855.5,286046998.4,N
1531957875.4,286046999.1,N
1531957895.2,286046998.6,N
1531957915.1,286046996.6,N
1531957916.0,286046996.6,N
1531957935.8,286046996.9,N
1531957955.6,286046999.0,N
1531957975.5,286046998.1,N
1531957995.3,286047001.0,N
1531958015.1,286047000.9,N
1531958035.9,286047000.7,N
1531958055.7,286046998.4,N
1531958075.6,286046998.9,N
1531958095.4,286046998.1,N
1531958115.2,286047001.0,N
1531958135.1,286046998.2,N
1531958136.0,286046998.2,N
1531958155.8,286046998.7,N
1531958175.6,286046998.5,N
1531958195.5,286046999.9,N
1531958215.3,286047001.2,N
1531958235.2,286047000.6,N
1531958255.9,286047001.1,N
1531958275.7,286046998.2,N
1531958295.6,286046998.8,N
1531958315.4,286046998.1,N
1531958335.3,286047000.9,N
1531958355.1,286047001.2,N
1531958356.0,286047001.2,N
1531958375.8,286046998.2,N
1531958395.7,286047001.0,N
